ONEWEB-0130, 47276

Orbit data source: Space-Track

ONEWEB-0130, 47276 is a payload satellite owned by One Web (UK) in LEO that was launched on Fri, 18 Dec 2020 UTC via a SOYUZ-2-1B launch vehicle from the Vostochny Cosmodrome (VOSTO). Payload-class satellites include a variety of spacecraft equipped with specific instruments for various scientific and technological missions. These include communications satellites like Starlink; space stations such as the ISS; scientific satellites like the Hubble; Earth observation satellites from companies like Planet Labs, Umbra, and HawkEye 360; GPS; miniature CubeSats for education and research; and military/defense satellites.

Loading next visibility...
Identifier
47276, 2020-100U
Orbit
LEO
Country
Flag of UKUK
Related business
Manufacturer
One Web
Mission
Operational Commercial Communications
Bus & Motor
ARROW, Unknown motor
Mass
148 kg wet, ~140 kg dry
Launch date (UTC)
2020-12-18 (5 years ago)
Launch vehicle
SOYUZ-2-1B
Launch site
Vostochny Cosmodrome (VOSTO)
Object type
Payload
Rocket body
Debris
Shape & HBR
Trap Box + 2 Pan, 6.7 m
Radar Cross Section
3.464 m², Large (>1 m²)

Expand to show TLE details & history
Last TLE update: 10 hours ago

TLE from 10 hours ago
0 ONEWEB-0130
1 47276U 20100U   26095.45960301 -.00000338  00000-0 -97445-3 0  9997
2 47276  87.9016   5.0931 0001883  76.4313 283.7026 13.12441115255105
Epoch: 2026-04-05T11:01Z
TLE epoch observation values (Epoch: 2026-04-05T11:01:49.700Z)
Latitude
0.00008°
Longitude
5.8713°
Altitude
1,216.283 km
Speed
7.246 km/s
True Right ascension
00h 20m 22s
True Declination
0° 00' 00"
Sunlit
Object was in daylight at epoch
Visualization orbit readout
Latitude
Unknown
Longitude
Unknown
Altitude
Unknown
Speed
Unknown
Apparent Right ascension
Unknown
Apparent Declination
Unknown
Sunlit
N/A
Visualization observer readout
Local Sidereal Time
02:45:43
Azimuth
Unknown
Elevation
Unknown
Doppler factor
Unknown
Orbital elements
Apogee altitude
1,212.276 km
Perigee altitude
1,209.418 km
Semi-major axis
7,588.984 km
Eccentricity
0.00019
Inclination
87.9016°
RAAN
5.0931°
Arg. of periapsis
76.4313°
True anomaly
283.68164°
Mean anomaly
283.7026°
Eccentric anomaly
283.69212°
Mean motion
3.28298 °/min
Orbital period
109.66 mins
BSTAR
-0.00097445
Loading maneuver chart data...
Computing Atmospheric mass density...
Loading historical data...
Loading historical data...
Loading historical data...
Loading historical data...
Loading historical data...
Loading historical data...
Loading historical data...

Documentation

Showing up to 5 results
|